Flag for Switzerland Weather past 2 weeks in Opfikon, Zurich, Switzerland

Now
36 °F

Chilly.


Feels Like: 32 °F
Forecast: 31 / 44 °F
Wind: 5 mph from Southwest

Location: Zurich Town / Ville.

Current Time: Dec 21, 2014 at 11:01:24 PM

Latest Report: Dec 21, 2014 at 9:00 PM


Visibility: N/A

Pressure: 30.58 "Hg

Humidity: 87%

Dew point: 32 °F

Location of OpfikonLocation

Historic Weather in Opfikon — Graph

°F

Opfikon temperature yesterday

Maximum temperature yesterday: 48 °F (at 1:00 AM)
Minimum temperature yesterday: 39 °F (at 6:00 PM)
Average temperature yesterday: 43 °F

Past Weeks' High & Low Weather Summary

 TemperatureHumidityPressure
High54 °F (Dec 19, 2:00 PM)100% (Dec 9, 2:00 AM)30.60 "Hg (Dec 9, 2:00 AM)
Low30 °F (Dec 10, 2:00 AM)43% (Dec 13, 1:00 PM)29.87 "Hg (Dec 12, 8:00 PM)
Average41 °F80%30.17 "Hg
* Reported Dec 6 9:00 PM — Dec 21 9:00 PM, Opfikon, Weather by CustomWeather, © 2014

Note: Actual official high and low records may vary slightly from our data, if they occured in-between our weather recording intervals... More about our weather records

Advertising

Opfikon weather history for previous 24 hours

 ConditionsComfort  
Time TempWeatherWind HumidityBarometerVisibility
9:00 PM
Dec 21
36 °FChilly.5 mph87%30.58 "HgN/A
8:00 PM35 °FChilly.3 mph86%30.59 "HgN/A
7:00 PM37 °FChilly.2 mph83%30.58 "HgN/A
6:00 PM37 °FChilly.No wind82%30.58 "HgN/A
5:00 PM40 °FChilly.3 mph70%30.55 "HgN/A
4:00 PM41 °FQuite cool.6 mph66%30.55 "HgN/A
3:00 PM42 °FQuite cool.5 mph64%30.55 "HgN/A
2:00 PM42 °FQuite cool.5 mph66%30.56 "HgN/A
1:00 PM43 °FQuite cool.6 mph66%30.56 "HgN/A
12:00 PM42 °FQuite cool.5 mph69%30.58 "HgN/A
11:00 AM40 °FChilly.3 mph71%30.60 "HgN/A
10:00 AM39 °FChilly.5 mph74%30.59 "HgN/A
9:00 AM39 °FChilly.3 mph76%30.59 "HgN/A
8:00 AM39 °FChilly.5 mph76%30.59 "HgN/A
7:00 AM38 °FChilly.3 mph80%30.59 "HgN/A
6:00 AM37 °FChilly.3 mph84%30.59 "HgN/A
5:00 AM38 °FChilly.3 mph80%30.59 "HgN/A
4:00 AM39 °FChilly.3 mph75%30.57 "HgN/A
3:00 AM39 °FChilly.5 mph74%30.56 "HgN/A
2:00 AM39 °FChilly.7 mph73%30.55 "HgN/A
1:00 AM38 °FChilly.10 mph79%30.55 "HgN/A
12:00 AM41 °FQuite cool.7 mph61%30.51 "HgN/A
11:00 PM
Dec 20
40 °FQuite cool.7 mph62%30.50 "HgN/A
Weather by CustomWeather, © 2014

See weather overviewHow to use our weather pages